Regional Weather Roundup
Issued by NWS

Home | Current Version | Previous Version | Graphics & Text | Print | Product List | Glossary On
Versions: 1 2 3 4 5 6 7 8 9 10 11 12 13 14 15 16 17 18 19 20 21 22 23 24 25 26 27 28 29 30 31 32 33 34 35 36 37 38 39 40 41 42 43 44 45 46 47 48 49 50
000
ASUS45 KCYS 302110
RWRWY

WYOMING REGIONAL WEATHER ROUNDUP
NATIONAL WEATHER SERVICE CHEYENNE WY
300 PM MDT SUN AUG 30 2015

NOTE:  "FAIR" INDICATES FEW OR NO CLOUDS BELOW 12,000 FEET
WITH NO SIGNIFICANT WEATHER AND/OR OBSTRUCTIONS TO VISIBILITY.

WYZ001-302200-
YELLOWSTONE NATIONAL PARK

CITY           SKY/WX    TMP DP  RH WIND       PRES   REMARKS
LK YELLOWSTONE   N/A     64  39  39 W10G16    30.17F
W YELLOWSTONE  NOT AVBL

$$
WYZ002>013-054>058-071-098>099-302200-
NORTHERN WYOMING

CITY           SKY/WX    TMP DP  RH WIND       PRES   REMARKS
JACKSON        SUNNY     75  41  29 S14G21    30.07
CODY           FAIR      81  48  32 CALM      29.89F
GREYBULL       FAIR      89  42  19 N5        29.79F
WORLAND        FAIR      91  46  21 VRB7      29.80F
SHERIDAN       FAIR      84  48  28 NW6       29.86F
BUFFALO        FAIR      79  48  33 N16       29.93F
GILLETTE       FAIR      94  43  17 NW9       29.83F HX  90
HULETT         FAIR      93  43  17 N9        29.84F
NEWCASTLE      FAIR      95  36  12 SE9       29.85F HX  90

$$
WYZ014>020-022>026-101>103-302200-
CENTRAL WYOMING

CITY           SKY/WX    TMP DP  RH WIND       PRES   REMARKS
BIG PINEY      FAIR      82  34  17 W26G35    30.11F
PINEDALE       FAIR      79  32  18 SW24G31   30.12F
DUBOIS         FAIR      73  32  21 W29G41    30.06F
LANDER         FAIR      85  39  19 SW8G25    29.94F
RIVERTON       FAIR      86  36  16 SW15      29.94F
CASPER         FAIR      83  39  21 SW23G36   29.98S
DOUGLAS        FAIR      97  38  13 NW16      29.92F HX  92

$$
WYZ021-027>030-104>119-302200-
SOUTHERN WYOMING

CITY           SKY/WX    TMP DP  RH WIND       PRES   REMARKS
EVANSTON       PTSUNNY   76  38  25 W24       30.14S
KEMMERER       FAIR      79  32  18 W28G37    30.13F
FORT BRIDGER   CLOUDY    77  39  25 W30G37    30.18R
ROCK SPRINGS   CLOUDY    63  54  72 SW3       30.16F
DIXON          FAIR      79  40  25 W3        30.17F
RAWLINS        FAIR      81  40  23 SW26G36   30.13F
SARATOGA       FAIR      79  37  22 W24G35    30.17S
LARAMIE        FAIR      81  38  21 S8        30.16F
CHEYENNE       FAIR      88  34  14 SW10      30.06F
TORRINGTON     FAIR      97  36  12 E9        29.88F HX  92
PINE BLUFFS    FAIR      95  34  11 W8G18     29.99F HX  90

$$



USA.gov is the U.S. government's official web portal to all federal, state and local government web resources and services.